User: anonymous   Login
Location: Unspecified
(0.0000°N, 0.0000°E)
Time: 00:36:10
(UTC+00:00)
Language:

AIST 1 - Orbit

View from above orbital plane
View from above orbital plane
View from above satellite
View from above satellite

Ground track
Ground track

The orbit data is extracted from the following two-line orbital elements,

1 39492U 13078C   17206.59551579 +.00000150 +00000-0 +13798-4 0  9996
2 39492 082.4208 145.7489 0018414 267.8766 092.0342 14.87602764191658
Epoch (UTC): 25 July 2017 14:17:32
Eccentricity: 0.0018414
inclination: 82.4208°
perigee height: 592 km
apogee height: 618 km
right ascension of ascending node: 145.7489°
argument of perigee: 267.8766°
revolutions per day: 14.87602764
mean anomaly at epoch: 92.0342°
orbit number at epoch: 19165

The dashed part of the orbit path shows where the satellite is in the earth's shadow,  

DLR